This is the latest recevied weather packets stored in our database for station/object KTPA. If no packets are shown the sender has not sent any weather packets the latest 1 day(s).
| Time | Temp. | Humidity | Pressure | Rain* | Wind** | Luminosity | Snow |
|---|---|---|---|---|---|---|---|
| 1778103221 | 30° C | 62% | 1015.2 hPa | - | - | - | - |
| 1778099022 | 30.56° C | 58% | 1015.6 hPa | - | - | - | - |
| 1778097223 | 30.56° C | 52% | 1016.3 hPa | - | - | - | - |
| 1778094820 | 30.56° C | 52% | 1016.3 hPa | - | - | - | - |
| 1778093622 | 30° C | 55% | 1016.6 hPa | - | - | - | - |
| 1778087624 | 28.89° C | 62% | 1017.3 hPa | - | - | - | - |
| 1778085821 | 27.78° C | 65% | 1017.6 hPa | - | - | - | - |
| 1778080422 | 27.78° C | 61% | 1017.6 hPa | - | - | - | - |
| 1778079823 | 27.78° C | 61% | 1017.6 hPa | - | - | - | - |
| 1778078622 | 26.67° C | 69% | 1017.3 hPa | - | - | - | - |
| 1778076819 | 26.67° C | 69% | 1017.3 hPa | - | - | - | - |
| 1778075620 | 23.89° C | 83% | 1017.3 hPa | - | - | - | - |
| 1778072622 | 23.89° C | 83% | 1017.3 hPa | - | - | - | - |
| 1778072018 | 22.78° C | 83% | 1016.6 hPa | - | - | - | - |
| 1778071421 | 22.78° C | 83% | 1016.6 hPa | - | - | - | - |
| 1778069620 | 22.78° C | 83% | 1016.6 hPa | - | - | - | - |
| 1778067218 | 21.67° C | 83% | 1016.3 hPa | - | - | - | - |
| 1778066623 | 21.67° C | 83% | 1016.3 hPa | - | - | - | - |
| 1778066022 | 21.67° C | 83% | 1016.3 hPa | - | - | - | - |
| 1778064222 | 21.67° C | 83% | 1015.9 hPa | - | - | - | - |
| 1778063022 | 21.67° C | 83% | 1015.9 hPa | - | - | - | - |
| 1778062420 | 21.67° C | 83% | 1015.9 hPa | - | - | - | - |
| 1778060021 | 21.67° C | 78% | 1015.6 hPa | - | - | - | - |
| 1778059420 | 21.67° C | 78% | 1015.6 hPa | - | - | - | - |
| 1778058223 | 21.67° C | 78% | 1015.6 hPa | - | - | - | - |
* Rain since midnight (hover to see other rain measurements)
** Current wind speed in m/s (hover to see current wind gust speed)